TIROS 8

导读 | 星芒AI

TIROS 8(Television Infrared Observation Satellite 8)是美国国家航空航天局(NASA)于1962年12月发射的气象卫星,属于TIROS系列。该卫星主要用于观测地球云层覆盖和天气变化,搭载了电视摄像机和红外传感器,能够传输实时气象图像。TIROS 8的成功运行标志着气象卫星技术的重要进展,为后续气象卫星的发展奠定了基础,极大地提升了天气预报的准确性。

基本信息
目录编号:
716
目录名称:
TIROS 8
国际标识:
1963-054A
轨道中心:
EARTH
卫星名称:
TIROS 8
卫星全名:
--
卫星状态:
在轨 (已飞行22640 天)
发射日期:
1963-12-21 UTC
国别 :
美国 (US)
星等 :
--
轨道信息
数据来源 国际轨道数据 AOE轨道数据
星历时间 2025-12-14T16:31:16+0800
1天前
查看轨道信息
2025-12-15T04:00:00+0800
22小时前
查看轨道信息
半长轴 7029.963km 7029.965km
偏心率 0.0025311 0.0025783
轨道倾角 58.496° 58.494°
近地点辐角 36.947° 37.113°
升交点赤经 0.928° 359.155°
平近点角 323.331° 339.866°
近地点 634.034km 633.704km
远地点 669.622km 669.956km
周期 97.766分钟 97.766分钟
每日圈数 14.729001 14.728992
详细信息
使用方式:
暂无
2D轨道图
3D轨道图
轨道高度分析图
轨道倾角分析图
轨道综合分析图
查看轨道综合分析图